Contact Us:
Email: info@sawbill.com
Phone: (218)663-7150
Fax: (218)663-7980
Mail: 4620 Sawbill Trail
Box 2129
Tofte, MN 55615


Powered by
Movable Type 3.15
 
Sawbill Weather History
Check out the 7 Day Weather Forecast for the Superior National Forest.
Date High
Temperature
Low
Temperature
Barometric
Pressure
Relative
Humidity 7AM
9 AM
Temperature
Moisture Snow
9/23/16 62 42 30.16 90% 52 .04"
9/22/16 63 41 30.20 75% 42 0
9/21/16 60 46 30.12 87% 51 .08"
9/20/16 66 46 30.12 75% 46 0
9/19/16 67 48 30.04 57% 50 0
9/18/16 71 58 29.96 85% 55 .15"
9/17/16 64 55 29.92 96% 55 .52"
9/16/16 64 56 29.84 98% 57 1.24"
9/15/16 65 40 29.96 98% 59 .26"
9/14/16 59 39 30.15 77% 39 0
9/13/16 60 46 30.18 84% 46 .02"
9/12/16 70 53 30.04 83% 53 .11"
9/11/16 67 50 29.90 86% 54 0
9/10/16 63 50 30.01 87% 46 Trace
9/9/16 70 48 29.94 95% 53 .52"
9/8/16 67 48 29.90 84% 48 Trace
9/7/16 68 52 29.90 98% 50 .27"
9/7/16 68 57 29.84 98% 58 .49"
9/6/16 68 54 30.04 98% 58 Trace
9/5/16 68 61 29.96 98% 65 1"
9/4/16 72 53 29.92 93% 62 .27"
9/3/16 68 51 30.07 88% 53 0
9/2/16 69 50 30.12 81% 54 0
9/1/16 67 50 30.24 84% 50 0
8/31/16 69 48 30.22 77% 50 0
8/30/16 74 45 30.12 88% 48 0
8/29/16 76 58 30.10 82% 58 .02"
8/28/16 74 55 30.10 98% 62 .43"
8/27/16 66 52 30.12 89% 55 Trace
8/26/16 67 51 30.10 81% 52 Trace
8/25/16 68 54 30.06 84% 54 .16"
8/24/16 78 56 29.99 73% 56 0
8/23/16 77 58 29.94 84% 60 Trace
8/22/16 73 51 30.01 81% 58 Trace
8/21/16 64 48 30.00 89% 51 .16"
8/20/16 78 51 29.90 87% 51 .54"
8/19/16 78 58 29.90 72% 61 .02"
8/18/16 81 58 29.98 98% 58 0
8/17/16 79 58 30.00 76% 58 0
8/16/16 77 52 30.04 83% 58 0
8/15/16 77 52 30.06 84% 60 Trace
8/14/16 72 51 30.09 76% 52 0
8/13/16 71 56 30.01 93% 58 .03"
8/12/16 70 58 29.96 98% 59 .28"
8/11/16 67 56 30.00 96% 62 .3"
8/10/16 63 51 30.02 98% 61 .12"
8/9/16 81 56 30.08 74% 56 Trace
8/7/16 73 49 30.08 80% 60 0
8/6/16 71 51 30.08 70% 51 0
8/5/16 71 58 30.01 89% 59 Trace
8/4/16 79 52 29.87 83% 62 .03"
8/3/16 82 58 29.88 98% 65 .55"
8/2/16 77 58 30.06 77% 58 .22"
8/1/16 78 55 30.08 97% 63 .39"
7/31/16 76 54 30.06 71% 55 0
7/30/16 74 48 30.06 73% 54 0
7/29/16 80 48 30.04 88% 48 0
7/28/16 72 48 30.10 70% 48 0
7/27/16 71 54 30.04 75% 54 .03"
7/26/16 80 62 30.04 68% 63 .02"
7/25/16 77 62 30.04 87% 64 .04"
7/24/16 78 62 30.01 88% 77 0
7/23/16 77 61 29.86 88% 63 Trace
7/22/16 83 60 30.04 74% 61 0
7/21/16 82 60 30.00 79% 60 0
7/20/16 86 58 29.90 98% 67 .26"
7/19/16 77 47 30.08 76% 58 0
7/18/16 70 47 30.18 74% 47 0
7/17/16 73 56 30.04 94% 56 .42"
7/16/16 73 45 29.94 86% 57 0
7/15/16 65 45 30.04 79% 45 0
7/14/16 62 51 30.02 85% 51 Trace
7/13/16 72 62 29.82 98% 62 .41"
7/12/16 78 63 29.72 65% 65 0
7/11/16 67 62 29.74 98% 63 1.11"
7/10/16 73 54 29.90 90% 62 0
7/9/16 71 60 30.00 74% 60 0
7/8/16 68 58 30.10 84% 60 .15"
7/7/16 73 57 29.84 98% 58 .42"
7/6/16 80 56 29.94 71% 57 0
7/5/16 80 57 29.98 96% 59 Trace
7/4/16 75 55 29.86 96% 56 .51"
7/3/16 76 54 29.96 76% 58 0
7/2/16 74 51 30.10 74% 60 0
7/1/16 69 49 30.12 76% 54 0
6/30/16 65 48 30.12 84% 49 0
6/29/16 76 57 30.00 98% 58 .93"
6/28/16 71 48 30.10 65% 61 0
6/27/16 59 49 30.20 85% 51 Trace
6/26/16 73 54 30.02 76% 54 .14"
6/25/16 69 58 29.88 78% 59 .42"
6/24/16 78 52 29.98 72% 60 0
6/23/16 76 52 30.06 66% 52 0
6/22/16 68 46 30.02 69% 53 0
6/21/16 69 44 30.02 68% 46 0
6/20/16 70 49 30.00 45% 62 0
6/19/16 83 60 29.98 50% 60 Trace
6/18/16 80 59 30.10 84% 62 .08"
6/17/16 76 50 30.18 75% 68 Trace
6/16/16 80 51 30.16 68% 61 0
6/15/16 60 45 30.08 98% 50 .05"
6/14/16 64 53 29.92 94% 56 .16"
6/13/16 59 47 30.04 91% 53 .03"
6/12/16 61 46 30.08 98% 47 1"
6/11/16 68 44 30.20 71% 46 0
6/10/16 71 52 29.98 72% 63 .4"
6/9/16 72 43 30.00 63% 52 0
6/8/16 65 41 30.09 68% 43 0
6/7/16 59 40 30.04 77% 41 0
6/6/16 56 45 29.98 65% 45 .07"
6/5/16 63 50 29.76 91% 53 .28"
6/4/16 57 50 29.84 97% 50 .33"
6/3/16 65 51 29.98 94% 52 .3"
6/2/16 59 42 30.06 80% 42 .76"
6/1/16 71 47 29.96 93% 51 .76"
5/31/16 55 48 29.98 95% 56 .18"
5/30/16 75 46 30.00 81% 46 0
5/29/16 62 52 30.00 96% 54 .39"
5/28/16 64 56 29.92 98% 58 .22"
5/27/16 67 51 29.96 98% 56 1.07"
5/26/16 64 51 29.98 84% 52 0
5/25/16 64 50 29.94 94% 56 .02"
5/24/16 70 51 30.04 88% 52 .09"
5/23/16 78 49 30.00 81% 57 .47"
5/22/16 78 49 29.98 48% 51 0
5/21/16 77 45 30.14 61% 49 0
5/20/16 70 43 30.20 47% 55 0
5/19/16 72 48 30.12 58% 52 0
5/18/16 67 37 30.16 59% 38 0
5/17/16 58 35 30.24 53% 41 0
5/16/16 52 34 30.24 67% 35 0
5/15/16 51 32 30.04 80% 38 .19"
5/14/16 36 27 30.00 59% 27 .02" Trace
5/13/16 42 26 30.02 72% 27 .06" Trace
5/12/16 57 38 29.96 56% 38 0
5/11/16 57 45 29.98 87% 47 .3"
5/10/16 62 42 30.10 39% 50 0
5/9/16 60 37 30.10 40% 46 0
5/8/16 66 36 30.08 56% 45 0
5/7/16 56 27 30.08 92% 36 0
 


Home I Trip Planning I Rentals and Outfitting I Reservations I Campgrounds I Sawbill Store I Sawbill News I Contact

© 1997 - 2016, Sawbill Canoe Outfitters, Inc. I Privacy Policy